Location: Kelshall
(52.0000°N, 0.0500°W)
Time: 12:22:11
(UTC+00:00)

Cosmos 1300 Rocket - Pass Details

Date: 18 September 2020
Orbit: 601 x 627 km, 82.5° (Epoch: 25 October)

Event Time Altitude Azimuth Distance (km) Brightness Sun altitude
Rises 19:54:37 0° 194° (SSW) 2,880 6.9 -16.8°
Reaches altitude 10° 19:56:49 10° 196° (SSW) 1,983 6.0 -17.1°
Maximum altitude 20:01:13 74° 282° (WNW) 653 3.7 -17.7°
Drops below altitude 10° 20:05:41 10° 8° (N) 2,012 6.4 -18.3°
Sets 20:07:57 0° 10° (N) 2,926 7.3 -18.6°
